Location: Valdosta
(30.8330°N, 83.2790°W)
Time: 17:40:53
(UTC-04:00)

Daily predictions for brighter satellites

Satellite Brightness Start Highest point End
(mag) Time Altitude Azimuth Time Altitude Azimuth Time Altitude Azimuth
Cosmos 1655 Rocket 4.2 20:24:51 10° SSE 20:30:51 50° E 20:36:54 10° NNE
Okean 2 Rocket 3.1 20:30:02 10° S 20:34:30 77° E 20:39:01 10° N
ATLAS 2AS CENTAUR R/B 3.3 20:28:14 10° S 20:35:05 42° ESE 20:42:26 10° NE
CZ-2D R/B 4.3 20:32:02 10° SE 20:35:20 27° ENE 20:38:39 10° NNE
Cosmos 44 3.8 20:31:35 10° N 20:35:45 38° ENE 20:40:05 10° SE
CZ-4C R/B 3.5 20:28:42 10° NW 20:36:09 64° WSW 20:44:08 10° SSE
Intercosmos 25 Rocket 3.5 20:38:16 10° NNW 20:41:23 62° W 20:44:57 10° S
BREEZE-M DEB (TANK) 2.8 20:39:50 10° WSW 20:42:07 49° NW 20:46:14 10° NE
H-2A R/B 2.7 20:42:00 10° SSE 20:45:48 84° ENE 20:49:35 10° N
NOSS 2-3 (E) 3.7 20:41:42 10° SSW 20:46:12 69° ESE 20:51:10 10° NE
Delta 2 Rocket 3.2 20:42:55 10° WSW 20:46:43 88° SSE 20:51:04 10° ENE
BREEZE-M DEB (TANK) 4.3 20:44:24 10° NNW 20:47:57 38° NE 20:59:04 12° ESE
Skynet4D Del rocket 4.3 20:42:52 10° W 20:50:15 64° S 20:56:04 13° ESE
ALOS 3.6 20:46:31 10° S 20:50:56 43° W 20:55:23 10° NNW
Resurs 1-3 4.1 20:49:37 10° SE 20:53:41 39° ENE 20:57:47 10° N
USA 186 2.8 20:51:08 11° SE 20:53:53 29° ENE 20:56:52 10° NNE
Cosmos 2227 4.3 20:48:51 10° NNW 20:54:27 60° ENE 21:00:02 10° SSE
Lacrosse 5 1.8 20:49:27 10° SSW 20:54:30 74° SE 20:59:34 10° NE
Cosmos 1452 Rocket 4.3 20:49:31 10° SSW 20:54:42 58° WNW 20:59:54 10° N
Cosmos 1420 Rocket 4.0 20:50:48 10° SSW 20:55:57 85° WNW 21:01:10 10° NNE
Helios 1B rocket 4.1 20:55:13 10° ENE 20:57:30 14° E 20:57:36 14° E
Cosmos 1812 4.3 20:54:54 10° NNW 20:58:31 38° W 21:02:07 10° SSW
Cosmos 407 Rocket 4.1 20:55:52 10° NNW 21:01:08 60° WSW 21:06:18 10° S
HJ-1C 4.1 20:59:00 10° S 21:02:20 55° W 21:05:41 10° NNW
Atlas Centaur 2 3.0 20:54:05 10° W 21:02:39 85° S 21:08:52 16° E
IUS-17 SRM-1 4.4 21:01:22 10° SW 21:04:42 16° S 21:05:50 14° SSE
Meteor 2-11 Rocket 4.4 20:59:34 10° N 21:05:39 74° E 21:11:41 10° SSE
Cosmos 1602 3.9 21:04:33 10° S 21:08:22 73° W 21:12:11 10° N
ASTRO E2 4.2 21:07:04 10° SSW 21:09:55 19° SSE 21:10:25 18° SE
Cosmos 1417 Rocket 4.5 21:04:01 10° N 21:10:24 79° E 21:16:44 10° S
SeaSat 1 2.4 21:06:24 10° NNE 21:11:18 67° ESE 21:16:11 10° SSW
Okean 1 Rocket 3.7 21:11:31 15° SSE 21:14:28 33° E 21:18:23 10° NNE
Cosmos 1300 Rocket 3.5 21:11:08 10° S 21:15:20 55° E 21:19:33 10° NNE
Cosmos 1023 Rocket 4.4 21:10:54 10° NNW 21:16:11 81° ENE 21:21:06 12° SSE
CZ-3A R/B 2.8 21:16:03 10° WSW 21:19:10 16° SW 21:20:21 13° S
Cosmos 2322 Rocket 2.8 21:14:09 10° SSW 21:19:47 61° WNW 21:25:25 10° NNE
Meteor 1-11 Rocket 3.8 21:15:25 10° S 21:21:18 89° W 21:27:04 10° N
Cosmos 2263 Rocket 2.9 21:16:23 10° N 21:21:35 35° ENE 21:23:58 25° ESE
YAOGAN 6 3.9 21:22:14 23° ENE 21:22:14 23° ENE 21:24:54 10° NNE
GPS 2-05 Rocket1 3.6 21:22:04 10° WNW 21:25:19 41° N 21:26:33 28° ENE
Tiangong 1 3.4 21:24:48 10° N 21:26:04 12° NNE 21:26:47 11° NNE
Cosmos 1140 Rocket 3.6 21:22:43 10° NNW 21:27:58 78° WSW 21:32:37 13° S
Spot 2 Rocket 3.5 21:23:07 10° SSE 21:28:14 86° WSW 21:33:21 10° NNW
Cosmos 2266 Rocket 3.8 21:22:17 10° S 21:28:16 66° E 21:34:13 10° NNE
Cosmos 614 Rocket 3.9 21:23:54 10° NNW 21:29:02 90° NE 21:32:56 18° SSE
S3M 4.0 21:22:53 10° N 21:29:13 86° E 21:35:34 10° S
Resurs 01 Rocket 2.0 21:25:12 10° S 21:29:36 66° W 21:34:02 10° NNW
Cosmos 1553 Rocket 4.0 21:24:13 10° N 21:30:21 85° W 21:36:24 10° S
SL-16 R/B 3.3 21:26:35 10° SW 21:32:00 47° WNW 21:37:27 10° N
Helios 1A 3.5 21:41:23 40° E 21:41:33 40° ENE 21:45:32 10° N
Cosmos 2322 3.6 21:37:44 10° S 21:43:17 62° ESE 21:48:52 10° NNE
Meteor 1-23 Rocket 4.3 21:39:45 10° N 21:45:14 56° E 21:47:03 39° SE
ERS-1 Rocket 4.0 21:46:40 28° ENE 21:46:40 28° ENE 21:50:44 10° NNE
DELTA 2 R/B (1) 3.6 21:42:44 10° WNW 21:48:19 71° SSW 21:50:09 42° SE
Cosmos 2360 Rocket 2.1 21:46:46 10° SSW 21:52:24 86° WNW 21:58:03 10° NNE
ATLAS 3B R/B 3.6 21:46:59 10° N 21:52:34 28° NE 21:53:56 26° ENE
COSMOS 2428 3.5 21:55:48 32° ENE 21:55:48 32° ENE 21:59:31 10° NE
Cosmos 1939 Rocket 2.9 21:53:53 52° S 21:54:45 75° WSW 21:58:42 10° NNW
USA 267 3.8 21:51:52 23° SSE 21:55:53 53° SW 22:02:16 10° NW
Cosmos 1536 4.1 21:52:08 10° SSW 21:55:59 41° W 21:59:50 10° N
Envisat 3.6 21:53:47 17° S 21:57:31 55° W 22:02:30 10° NNW
Lacrosse 5 rocket 3.1 21:59:17 10° WNW 22:02:17 22° WSW 22:03:12 21° SW
Cosmos 1741 Rocket 4.1 21:57:27 10° NNW 22:02:41 71° WSW 22:04:32 40° S
H-2A R/B 3.8 22:08:23 17° NE 22:08:23 17° NE 22:10:18 10° NNE
NOAA 11 4.2 22:12:04 61° E 22:12:12 61° ENE 22:17:38 10° N
Cosmos 1238 Rocket 4.5 22:10:04 10° N 22:15:42 41° ENE 22:15:42 41° ENE
Meteosat 1 Rocket2 3.9 22:11:46 10° W 22:17:06 72° S 22:18:09 61° ESE
Cosmos 1302 Rocket 4.2 22:19:34 60° NE 22:19:34 60° NE 22:23:57 10° NNE
MetOp-A 4.4 22:24:43 56° NE 22:24:43 56° NE 22:29:16 10° N
ATLAS 2AS CENTAUR R/B 4.4 22:19:07 10° WSW 22:26:05 38° NW 22:33:29 10° NNE
Delta 2 Rocket 4.5 22:25:27 10° WNW 22:28:55 43° NNW 22:28:55 43° NNW
Aureole 3 Rocket 4.4 22:23:23 10° N 22:30:15 52° ENE 22:30:15 52° ENE
SPOT 5 4.4 22:33:36 26° NNE 22:33:36 26° NNE 22:35:54 10° N
BREEZE M DEB (TANK) 4.4 22:22:57 10° WSW 22:31:49 38° NW 22:33:38 24° N
Helios 1B rocket 4.1 22:29:11 10° N 22:32:48 31° WNW 22:33:57 26° WSW
Intelsat 5-1 Rocket 3.9 22:14:58 10° W 22:34:57 59° S 22:36:17 55° SSE
Centaur D AC-29 3.6 22:35:25 10° SW 22:43:38 27° SSW 22:43:38 27° SSW
ARGOS 3.8 22:49:54 49° N 22:49:54 49° N 22:53:46 10° NNW
Atlas Centaur 2 3.1 22:44:30 10° W 22:51:30 53° SW 22:51:30 53° SW
Cosmos 2263 Rocket 3.9 23:00:46 10° NW 23:05:13 24° W 23:05:41 24° WSW
Cosmos 2278 Rocket 4.4 23:05:04 10° NNE 23:06:39 16° NNE 23:06:39 16° NNE
Cosmos 1844 Rocket 4.0 23:07:03 10° NNW 23:10:10 33° N 23:10:10 33° N
Terra 4.4 23:16:55 14° N 23:16:55 14° N 23:17:34 10° N
Cosmos 2219 Rocket 4.0 23:24:26 24° N 23:24:26 24° N 23:26:41 10° N
NOSS 3-2 (A) 4.5 23:19:26 10° NNW 23:25:38 53° NNE 23:25:38 53° NNE
USA 238 DEB 4.3 23:21:57 10° NNW 23:27:24 54° NW 23:27:24 54° NW
USA 238 4.3 23:22:03 10° NNW 23:27:30 55° NW 23:27:30 55° NW
ATLAS 3B R/B 3.9 23:37:09 10° NW 23:41:11 34° WNW 23:41:11 34° WNW
H-2A R/B 4.4 23:49:01 18° NW 23:49:01 18° NW 23:50:27 10° NNW
Cosmos 2333 Rocket 4.5 23:55:01 19° N 23:55:01 19° N 23:56:45 10° N
